Location: Atbuku
(36.4936°N, 30.4362°E)
Time: 11:18:11
(UTC+00:00)

Cosmos 1825 Rocket - Visible Passes

Search period start: 15 March 2026 00:00
Search period end: 25 March 2026 00:00
Orbit: 598 x 622 km, 82.5° (Epoch: 14 March)

Date Brightness Start Highest point End Pass type
(mag) Time Alt. Az. Time Alt. Az. Time Alt. Az.
15 Mar 6.8 02:48:16 10° NE 02:51:03 16° ENE 02:53:48 10° ESE visible
15 Mar 4.6 16:51:29 10° SSW 16:55:46 51° W 17:00:06 10° N visible
16 Mar 5.8 03:01:54 10° NNE 03:05:43 28° ENE 03:09:27 10° SE visible
16 Mar 5.8 17:06:32 10° SW 17:10:20 28° WNW 17:14:12 10° NNW visible
17 Mar 4.5 03:16:00 10° N 03:20:17 51° E 03:24:29 10° SSE visible
17 Mar 6.8 17:22:10 10° WSW 17:24:59 17° WNW 17:27:50 10° NNW visible
18 Mar 3.5 03:30:23 10° N 03:34:46 85° W 03:39:05 10° S visible
19 Mar 6.9 02:09:15 10° NE 02:11:16 13° ENE 02:13:15 10° E visible
20 Mar 6.1 02:22:29 10° NNE 02:25:57 22° ENE 02:29:21 10° SE visible
21 Mar 5.0 02:36:26 10° N 02:40:32 40° E 02:44:36 10° SSE visible
21 Mar 6.6 16:41:54 10° SW 16:45:13 21° WNW 16:48:33 10° NNW visible
22 Mar 3.7 02:50:42 10° N 02:55:03 75° E 02:59:22 10° SSE visible
22 Mar 7.1 16:58:16 10° W 16:59:55 12° WNW 17:01:34 10° NW visible
23 Mar 3.5 03:05:13 10° NNW 03:09:29 58° W 03:13:43 10° S visible
24 Mar 6.4 01:43:10 10° NNE 01:46:09 18° ENE 01:49:06 10° ESE visible
24 Mar 4.2 03:20:01 10° NNW 03:23:51 31° W 03:27:40 10° SSW visible
